Location: Peebles
(55.6412°N, 3.1714°W)
Time: 21:03:28
(UTC+01:00)

deb Kosmos-2123 - Pass Details

Date: 06 July 2022
Orbit: 942 x 985 km, 82.9° (Epoch: 17 August)

Event Time Altitude Azimuth Distance (km) Brightness Sun altitude
Exits shadow 00:04:42 - 132° (SE) 2,933 ? -10.1°
Reaches altitude 10° 00:05:22 10° 129° (SE) 2,739 ? -10.2°
Maximum altitude 00:10:06 23° 79° (E) 1,954 ? -10.3°
Drops below altitude 10° 00:14:50 10° 30° (NNE) 2,738 ? -10.5°
Sets 00:17:51 0° 17° (NNE) 3,684 ? -10.6°
